Location: Unspecified
(48.2082°N, 0.0000°E)
Time: 06:00:38
(UTC+00:00)

A-11 Canister half - Pass Details

Date: 20 August 2020
Orbit: 1514 x 1686 km, 47.2° (Epoch: 21 September)

Event Time Altitude Azimuth Distance (km) Brightness Sun altitude
Rises 21:13:35 0° 290° (WNW) 4,804 12.7 -19.0°
Reaches altitude 10° 21:16:52 10° 284° (WNW) 3,841 11.9 -19.4°
Maximum altitude 21:25:46 41° 219° (SW) 2,243 9.7 -20.4°
Enters shadow 21:30:57 25° 168° (SSE) 2,909 9.9 -20.9°
